CMS-02 (GSAT 24)

Last updated on Wed Oct 22 2025 00:02:50 GMT+0000 (Coordinated Universal Time)

1 52903U 22067A 25294.56708675 -.00000158 00000+0 00000+0 0 9995 2 52903 0.0204 248.5123 0003264 6.1787 62.7448 1.00271857 12214
UTC large
Height (km)
Speed (km/s)
/
Latitude / Longitude
Inclination (degrees)
Orbital Period (minutes)
Azimuth
Elevation
Range (km)
Doppler Factor

Next 0 passes for location: London (51.5072 / 0.1276)

Sorry there are no passes over London.